#timestamp,LO_Frequency,Hit,StdDev 
1541005215.6,286046998.6,N
1541005235.4,286046998.5,N
1541005255.3,286046999.0,N
1541005275.1,286046998.8,N
1541005295.8,286046998.7,N
1541005315.7,286046999.6,N
1541005335.5,286046995.1,Y
1541005355.4,286046998.8,P
1541005375.2,286046996.9,P
1541005395.0,286046999.5,N
1541005395.9,286046999.5,N
1541005415.8,286046998.6,N
1541005435.6,286046998.2,N
1541005455.4,286046998.3,N
1541005475.3,286046998.4,N
1541005495.1,286046998.1,N
1541005515.9,286046998.8,N
1541005535.7,286046998.7,N
1541005555.5,286046998.8,N
1541005575.4,286046999.0,N
1541005595.2,286046998.8,N
1541005615.0,286047001.0,N
1541005615.9,286047001.0,N
1541005635.8,286047000.7,N
1541005655.6,286046998.3,N
1541005675.5,286046998.4,N
1541005695.3,286047002.8,N
1541005715.1,286047001.6,N
1541005735.9,286047001.5,N
1541005755.7,286047001.5,N
1541005775.6,286047002.4,N
1541005795.4,286047001.8,N
1541005815.2,286047003.9,N
1541005835.1,286047002.5,N
1541005836.0,286047002.5,N
1541005855.8,286046999.8,N
1541005875.6,286046998.4,N
1541005895.5,286047001.2,N
1541005915.3,286046998.8,N
1541005935.2,286047001.2,N
1541005955.9,286046998.2,N
1541005975.7,286046998.5,N
1541005995.6,286047001.1,N
1541006015.4,286047000.4,N
1541006035.3,286047000.1,N
1541006055.1,286046999.7,N
1541006056.0,286046999.7,N
1541006075.8,286047001.6,N
1541006095.7,286047002.8,N
1541006115.5,286046999.7,N
1541006135.4,286047000.6,N
1541006155.2,286046999.7,N
1541006175.0,286047002.2,N
1541006175.9,286047002.2,N
1541006195.8,286047004.3,N
1541006215.6,286047001.8,N
1541006235.4,286047004.0,N
1541006255.3,286047002.4,N
1541006275.1,286047000.1,N
1541006295.9,286047002.4,N
1541006315.7,286047002.4,N
1541006335.5,286047004.3,N
1541006355.4,286047001.8,N
1541006375.2,286047000.1,N
1541006395.1,286047000.3,N
1541006396.0,286047000.3,N
1541006415.8,286047001.2,N
1541006435.6,286047001.1,N
1541006455.5,286046998.2,N
1541006475.3,286046998.8,N
1541006495.1,286046999.6,N
1541006515.9,286046998.4,N
1541006535.7,286046998.2,N
1541006555.6,286047000.8,N
1541006575.4,286046998.5,N
1541006595.2,286046999.4,N
1541006615.1,286046999.4,N
1541006616.0,286046999.4,N
1541006635.8,286046998.5,N
1541006655.7,286047000.2,N
1541006675.5,286047002.8,N
1541006695.3,286047000.0,N
1541006715.2,286047000.8,N
1541006735.0,286046999.9,N
1541006735.9,286046999.9,N
1541006755.8,286047000.8,N
1541006775.8,286047000.0,N
1541006795.7,286047000.5,N
1541006815.5,286047000.5,N
1541006835.3,286047000.3,N
1541006855.2,286047000.3,N
1541006875.0,286046998.4,N
1541006875.9,286046998.4,N
1541006895.8,286046999.4,N
1541006915.6,286047000.7,N
1541006935.4,286046999.3,N
1541006955.3,286046998.8,N
1541006975.1,286046998.3,N
1541006995.9,286047000.7,N
1541007015.7,286047000.9,N
1541007035.5,286047000.1,N
1541007055.4,286047002.5,N
1541007075.2,286046999.7,N
1541007095.0,286047002.7,N
1541007095.9,286047002.7,N
1541007115.8,286047004.4,Y
1541007135.6,286047001.3,P
1541007155.5,286047004.3,P
1541007175.3,286047004.3,N
1541007195.1,286047002.0,N
1541007215.9,286047000.2,N
1541007235.7,286047002.4,N
1541007255.5,286047004.0,N
1541007275.4,286047002.6,N
1541007295.2,286047001.9,N
1541007315.1,286046999.7,N
1541007316.0,286046999.7,N
1541007335.8,286047002.8,N
1541007355.6,286046999.9,N
1541007375.5,286047001.0,N
1541007395.3,286046998.2,N
1541007415.2,286046998.9,N
1541007435.9,286046998.3,N
1541007455.7,286047001.1,N
1541007475.6,286047001.0,N
1541007495.4,286047000.8,N
1541007515.2,286046998.6,N
1541007535.1,286046999.5,N
1541007536.0,286046999.5,N
1541007555.8,286046998.5,N
1541007575.7,286046998.2,N
1541007595.5,286046999.0,N
1541007615.3,286046996.5,N
1541007635.2,286046996.8,N
1541007655.0,286046997.8,N
1541007655.9,286046997.8,N
1541007675.8,286046998.0,N
1541007695.6,286046994.9,N
1541007715.4,286046995.6,N
1541007735.3,286046995.8,N
1541007755.1,286046995.3,N
1541007775.9,286046997.6,N
1541007795.7,286046995.6,N
1541007815.5,286046995.3,N
1541007835.4,286046997.2,N
1541007855.2,286046995.5,N
1541007875.1,286046995.2,N
1541007876.0,286046995.2,N
1541007895.8,286046995.9,N
1541007915.6,286046995.3,N
1541007935.5,286046995.1,N
1541007955.3,286046997.7,N
1541007975.1,286046997.8,N
1541007995.9,286046997.5,N
1541008015.7,286046995.8,N
1541008035.6,286046995.3,N
1541008055.4,286046996.1,N
1541008075.2,286046996.1,N
1541008095.1,286046996.0,Y
1541008096.0,286046996.0,P
1541008115.8,286046999.4,N
1541008135.6,286046998.8,N
1541008155.5,286046999.0,N
1541008175.3,286046998.4,N
1541008195.2,286046996.6,N
1541008215.9,286046997.2,N
1541008235.7,286046996.7,N
1541008255.6,286046999.6,N
1541008275.4,286046998.4,N
1541008295.3,286046998.3,N
1541008315.1,286046999.5,N
1541008316.0,286046999.5,N
1541008335.8,286046996.8,N
1541008355.7,286046996.6,N
1541008375.5,286046997.1,N
1541008395.3,286046997.7,N
1541008415.2,286046995.0,Y
1541008435.0,286046999.2,P
1541008435.9,286046999.2,N
1541008455.8,286046999.2,N
1541008475.6,286046996.7,Y
1541008495.4,286046999.3,P
1541008515.3,286046998.4,P
1541008535.1,286046998.7,P
1541008555.8,286046999.5,N
1541008575.7,286047000.8,N
1541008595.5,286046999.8,N
1541008615.4,286047002.4,Y
1541008635.2,286047000.6,P
1541008655.0,286047002.5,P
1541008655.9,286047002.5,N
1541008675.8,286047002.2,N
1541008695.6,286047002.2,N
1541008715.4,286046999.9,N
1541008735.3,286047000.6,N
1541008755.1,286047000.2,N
1541008775.9,286047000.4,N
1541008795.7,286047000.6,N
